Rutherfordton, NC

5:59 PM EDT on September 19, 2017 (GMT -0400)
Rutherford County-Marchman

Weather History for KFQD - January, 2014

Change the Weather History Date:

Thursday, January 16, 2014

  Actual Average (KAVL) Record (KAVL)
Temperature  
Mean Temperature 32 °F -  
Max Temperature 44 °F 46 °F 73 °F (1974)
Min Temperature 21 °F 22 °F -9 °F (1893)
Degree Days  
Heating Degree Days 32    
Moisture  
Dew Point 17 °F    
Average Humidity 54    
Maximum Humidity 91    
Minimum Humidity 28    
Precipitation  
Precipitation 0.00 in - - ()
Sea Level Pressure  
Sea Level Pressure 29.97 in    
Wind  
Wind Speed 3 mph (SSW)    
Max Wind Speed 10 mph    
Max Gust Speed 18 mph    
Visibility 10 miles    
Events      
Averages and records for this station are not official NWS values.
T = Trace of Precipitation, MM = Missing Value Source: NWS Daily Summary

Daily Weather History Graph

Daily Weather History Graph

Search for Another Location

Airport or City:

Trip Planner

Search our weather history database for the weather conditions in past years. The results will help you decide how hot, cold, wet, or windy it might be!

Date:

Astronomy

Jan. 16, 2014 Rise Set
Actual Time 7:35 AM EST 5:39 PM EST
Civil Twilight 7:08 AM EST 6:07 PM EST
Nautical Twilight 6:37 AM EST 6:38 PM EST
Astronomical Twilight 6:06 AM EST 7:08 PM EST
Moon 6:26 PM EST (1/16) 7:31 AM EST (1/16)
Length of Visible Light 10h 58m
Length of Day
10h 03m
Full, 100% of the Moon is Illuminated
Jan 16
Full
Jan 24
Last Quarter
Jan 30
New
Feb 6
First Quarter
Feb 14
Full

Hourly Weather History & Observations

Time (EST) Temp. Windchill Dew Point Humidity Pressure Visibility Wind Dir Wind Speed Gust Speed Precip Events Conditions
12:15 AM 32.0 °F 27.5 °F 20.1 °F 62% 29.94 in 10.0 mi NNE 4.6 mph - N/A   Clear
12:35 AM 31.6 °F 28.3 °F 19.4 °F 61% 29.95 in 10.0 mi NNE 3.5 mph - N/A   Clear
12:55 AM 31.3 °F - 19.2 °F 61% 29.95 in 10.0 mi Calm Calm - N/A   Clear
1:15 AM 30.7 °F 27.3 °F 18.5 °F 60% 29.95 in 10.0 mi NNE 3.5 mph - N/A   Clear
1:35 AM 29.3 °F - 19.4 °F 67% 29.95 in 10.0 mi Calm Calm - N/A   Clear
1:55 AM 28.4 °F - 19.9 °F 71% 29.95 in 10.0 mi Calm Calm - N/A   Clear
2:15 AM 27.5 °F 23.6 °F 20.3 °F 74% 29.96 in 10.0 mi West 3.5 mph - N/A   Clear
2:35 AM 26.6 °F 22.6 °F 20.3 °F 77% 29.97 in 10.0 mi WNW 3.5 mph - N/A   Clear
2:55 AM 28.4 °F - 19.2 °F 69% 29.96 in 10.0 mi Calm Calm - N/A   Clear
3:15 AM 27.1 °F - 18.9 °F 71% 29.97 in 10.0 mi Calm Calm - N/A   Clear
3:35 AM 27.7 °F - 19.0 °F 70% 29.97 in 10.0 mi Calm Calm - N/A   Clear
3:55 AM 25.7 °F - 19.4 °F 77% 29.97 in 10.0 mi Calm Calm - N/A   Clear
4:15 AM 25.7 °F - 18.5 °F 74% 29.96 in 10.0 mi Calm Calm - N/A   Clear
4:35 AM 24.8 °F - 18.5 °F 77% 29.97 in 10.0 mi Calm Calm - N/A   Clear
4:55 AM 24.1 °F - 18.7 °F 80% 29.97 in 10.0 mi Calm Calm - N/A   Clear
5:15 AM 25.0 °F - 18.5 °F 76% 29.98 in 10.0 mi Calm Calm - N/A   Clear
5:35 AM 22.6 °F - 19.0 °F 86% 29.99 in 10.0 mi Calm Calm - N/A   Clear
5:55 AM 21.7 °F 17.0 °F 19.6 °F 91% 29.99 in 10.0 mi NW 3.5 mph - N/A   Clear
6:15 AM 23.0 °F - 19.4 °F 86% 29.99 in 10.0 mi Calm Calm - N/A   Clear
6:35 AM 22.6 °F 18.0 °F 19.4 °F 87% 29.99 in 10.0 mi North 3.5 mph - N/A   Clear
6:55 AM 22.1 °F - 18.5 °F 86% 30.00 in 10.0 mi Calm Calm - N/A   Clear
7:15 AM 22.5 °F - 18.1 °F 83% 30.01 in 10.0 mi Calm Calm - N/A   Clear
7:35 AM 21.9 °F - 18.0 °F 85% 30.01 in 10.0 mi Calm Calm - N/A   Clear
7:55 AM 23.2 °F 18.7 °F 17.8 °F 80% 30.02 in 10.0 mi NNW 3.5 mph - N/A   Clear
8:15 AM 23.7 °F - 18.1 °F 79% 30.02 in 10.0 mi Calm Calm - N/A   Clear
8:35 AM 25.0 °F - 19.2 °F 79% 30.02 in 10.0 mi Calm Calm - N/A   Clear
8:55 AM 28.0 °F 24.2 °F 19.9 °F 72% 30.02 in 10.0 mi NW 3.5 mph - N/A   Clear
9:15 AM 29.8 °F 26.3 °F 20.1 °F 67% 30.04 in 10.0 mi NW 3.5 mph - N/A   Clear
9:35 AM 31.6 °F 28.3 °F 19.6 °F 61% 30.04 in 10.0 mi NW 3.5 mph - N/A   Clear
9:55 AM 32.4 °F 29.1 °F 17.2 °F 54% 30.05 in 10.0 mi WNW 3.5 mph - N/A   Clear
10:15 AM 33.4 °F 29.1 °F 17.4 °F 52% 30.03 in 10.0 mi West 4.6 mph - N/A   Clear
10:35 AM 33.6 °F 29.4 °F 16.7 °F 50% 30.03 in 10.0 mi WNW 4.6 mph - N/A   Clear
10:55 AM 36.0 °F 31.1 °F 17.6 °F 47% 30.03 in 10.0 mi SSW 5.8 mph - N/A   Clear
11:15 AM 36.0 °F 32.1 °F 14.0 °F 41% 30.02 in 10.0 mi WSW 4.6 mph - N/A   Clear
11:35 AM 37.4 °F 34.9 °F 15.1 °F 40% 30.01 in 10.0 mi WNW 3.5 mph - N/A   Clear
11:55 AM 37.4 °F - 14.0 °F 38% 29.99 in 10.0 mi Calm Calm - N/A   Clear
12:15 PM 39.0 °F 34.8 °F 12.7 °F 34% 29.97 in 10.0 mi SW 5.8 mph - N/A   Clear
12:35 PM 40.1 °F 35.3 °F 13.3 °F 34% 29.97 in 10.0 mi SW 6.9 mph - N/A   Clear
12:55 PM 41.0 °F 35.8 °F 13.8 °F 33% 29.95 in 10.0 mi SW 8.1 mph - N/A   Clear
1:15 PM 42.1 °F 36.6 °F 13.3 °F 31% 29.93 in 10.0 mi South 9.2 mph - N/A   Clear
1:35 PM 42.1 °F 38.4 °F 14.7 °F 33% 29.92 in 10.0 mi SSW 5.8 mph - N/A   Clear
1:55 PM 42.8 °F 37.0 °F 13.3 °F 30% 29.92 in 10.0 mi SSW 10.4 mph - N/A   Clear
2:15 PM 43.0 °F 39.5 °F 12.9 °F 30% 29.92 in 10.0 mi SSW 5.8 mph - N/A   Clear
2:35 PM 44.1 °F 42.5 °F 13.3 °F 29% 29.91 in 10.0 mi South 3.5 mph - N/A   Clear
2:55 PM 43.3 °F 40.7 °F 12.4 °F 28% 29.91 in 10.0 mi SSW 4.6 mph - N/A   Clear
3:35 PM 43.7 °F 38.1 °F 12.6 °F 28% 29.92 in 10.0 mi South 10.4 mph - N/A   Clear
3:55 PM 43.5 °F 38.3 °F 13.5 °F 30% 29.92 in 10.0 mi South 9.2 mph 16.1 mph N/A   Clear
4:15 PM 43.3 °F 39.9 °F 14.5 °F 31% 29.93 in 10.0 mi South 5.8 mph - N/A   Clear
4:35 PM 42.8 °F 38.6 °F 14.7 °F 32% 29.93 in 10.0 mi South 6.9 mph 18.4 mph N/A   Clear
4:55 PM 42.3 °F 38.6 °F 14.7 °F 33% 29.94 in 10.0 mi South 5.8 mph - N/A   Clear
5:15 PM 41.4 °F 36.8 °F 15.1 °F 35% 29.94 in 10.0 mi South 6.9 mph 16.1 mph N/A   Clear
5:35 PM 40.5 °F 35.8 °F 15.4 °F 36% 29.94 in 10.0 mi South 6.9 mph - N/A   Clear
5:55 PM 39.7 °F 35.6 °F 15.8 °F 38% 29.94 in 10.0 mi SSW 5.8 mph - N/A   Clear
6:15 PM 38.3 °F 33.2 °F 16.3 °F 41% 29.94 in 10.0 mi South 6.9 mph - N/A   Clear
6:35 PM 37.8 °F 35.3 °F 16.7 °F 42% 29.95 in 10.0 mi SSE 3.5 mph - N/A   Clear
6:55 PM 37.0 °F 32.4 °F 16.9 °F 44% 29.95 in 10.0 mi South 5.8 mph - N/A   Clear
7:15 PM 37.0 °F 31.6 °F 16.7 °F 44% 29.95 in 10.0 mi South 6.9 mph - N/A   Clear
7:35 PM 36.5 °F 31.8 °F 16.3 °F 44% 29.96 in 10.0 mi South 5.8 mph - N/A   Clear
7:55 PM 36.0 °F 32.1 °F 16.2 °F 45% 29.96 in 10.0 mi South 4.6 mph - N/A   Clear
8:15 PM 35.2 °F 31.2 °F 15.8 °F 45% 29.96 in 10.0 mi South 4.6 mph - N/A   Clear
8:35 PM 34.7 °F 30.6 °F 15.6 °F 46% 29.96 in 10.0 mi South 4.6 mph - N/A   Clear
8:55 PM 35.2 °F 30.3 °F 15.1 °F 44% 29.96 in 10.0 mi SSE 5.8 mph - N/A   Clear
9:15 PM 33.8 °F 28.6 °F 15.3 °F 47% 29.97 in 10.0 mi SSW 5.8 mph - N/A   Clear
9:35 PM 34.5 °F 30.4 °F 14.2 °F 43% 29.98 in 10.0 mi SSW 4.6 mph - N/A   Clear
9:55 PM 34.3 °F 30.2 °F 13.6 °F 43% 29.98 in 10.0 mi SSW 4.6 mph - N/A   Clear
10:15 PM 34.3 °F 31.4 °F 13.1 °F 42% 29.99 in 10.0 mi SSW 3.5 mph - N/A   Clear
10:35 PM 32.5 °F - 14.4 °F 47% 29.99 in 10.0 mi Calm Calm - N/A   Clear
10:55 PM 30.9 °F 26.2 °F 14.9 °F 52% 29.99 in 10.0 mi South 4.6 mph - N/A   Scattered Clouds
11:15 PM 32.0 °F 28.7 °F 14.2 °F 48% 29.99 in 10.0 mi SSE 3.5 mph - N/A   Scattered Clouds
11:35 PM 32.0 °F 28.7 °F 13.5 °F 46% 29.98 in 10.0 mi SE 3.5 mph - N/A   Clear
11:55 PM 30.0 °F 26.5 °F 14.5 °F 53% 29.97 in 10.0 mi SSE 3.5 mph - N/A   Clear